Location: Bill Sadowski Park
(25.6087°N, 80.3181°W)
Time: 20:18:42
(UTC-04:00)

OTV 5 (USA 277) - Visible Passes

Search period start: 15 August 2018 00:00
Search period end: 25 August 2018 00:00
Orbit: 316 x 317 km, 54.5° (Epoch: 30 July)

Date Brightness Start Highest point End Pass type
(mag) Time Alt. Az. Time Alt. Az. Time Alt. Az.
16 Aug ? 05:51:39 10° N 05:53:21 15° NE 05:55:02 10° E visible
16 Aug ? 20:30:44 10° S 20:32:55 22° SE 20:35:07 10° ENE visible
16 Aug ? 22:06:46 10° NW 22:06:46 10° NW 22:06:46 10° NW visible
17 Aug ? 06:05:12 10° NNW 06:07:51 57° NE 06:10:29 10° SE visible
17 Aug ? 20:44:34 10° SW 20:47:15 74° NW 20:49:57 10° NE visible
18 Aug ? 06:19:50 10° WNW 06:22:12 27° SW 06:24:33 10° S visible
18 Aug ? 20:59:46 10° W 21:01:44 18° NW 21:03:42 10° N visible
19 Aug ? 05:04:32 12° ESE 05:04:32 12° ESE 05:04:48 10° ESE visible
